WX4TAZ Weather Reports


time (UTC)temp
F
wind
direction
speed
knots
gust
knots
rain 1hr
in
rain 24hr
in
rain mn
in
humidity
%
barometer
mb
20260906181035 86 113 2.6 9.6 0.00 0.00 0.00 60 1012.7
20260906180546 85 123 4.3 9.6 0.00 0.00 0.00 59 1012.8
20260906180057 86 131 4.3 9.6 0.00 0.00 0.00 59 1012.9
20260906175510 86 119 5.2 9.6 0.00 0.00 0.00 59 1012.8
20260906175016 85 118 6.1 9.6 0.00 0.00 0.00 59 1012.9
20260906174527 85 124 5.2 9.6 0.00 0.00 0.00 59 1013.0
20260906174037 84 124 3.5 6.1 0.00 0.00 0.00 60 1013.1
20260906173537 83 110 4.3 7.0 0.00 0.00 0.00 60 1013.2
20260906173050 83 124 5.2 7.0 0.00 0.00 0.00 60 1013.3
20260906172559 83 87 4.3 7.0 0.00 0.00 0.00 60 1013.2
20260906172005 82 96 3.5 6.1 0.00 0.00 0.00 60 1013.4
20260906171526 82 117 2.6 6.1 0.00 0.00 0.00 61 1013.5
20260906171027 82 111 2.6 7.0 0.00 0.00 0.00 61 1013.4
20260906170537 82 122 3.5 7.0 0.00 0.00 0.00 61 1013.6
20260906170028 81 116 3.5 6.1 0.00 0.00 0.00 61 1013.5
20260906165523 81 120 3.5 5.2 0.00 0.00 0.00 61 1013.5
20260906165036 81 130 2.6 7.8 0.00 0.00 0.00 61 1013.7
20260906164546 81 121 4.3 6.1 0.00 0.00 0.00 61 1013.7
20260906164056 81 125 2.6 5.2 0.00 0.00 0.00 61 1013.7
20260906163505 81 126 1.7 3.5 0.00 0.00 0.00 62 1013.8
20260906163045 81 127 1.7 3.5 0.00 0.00 0.00 61 1013.9
20260906162548 80 143 0.0 0.0 0.00 0.00 0.00 62 1013.9
20260906162055 80 148 0.0 0.0 0.00 0.00 0.00 62 1014.0
20260906161513 80 148 0.0 0.0 0.00 0.00 0.00 62 1014.0
20260906161012 80 118 0.0 1.7 0.00 0.00 0.00 63 1013.9
20260906160524 80 236 0.0 2.6 0.00 0.00 0.00 63 1014.0
20260906160109 79 126 0.0 1.7 0.00 0.00 0.00 63 1013.9
20260906155509 79 229 0.0 7.0 0.00 0.00 0.00 63 1014.1
20260906155020 79 222 0.0 9.6 0.00 0.00 0.00 63 1014.1
20260906154531 79 266 5.2 9.6 0.00 0.00 0.00 63 1014.6
20260906154046 80 257 4.3 7.0 0.00 0.00 0.00 62 1014.3
20260906153545 80 190 3.5 7.8 0.00 0.00 0.00 63 1013.8
20260906153030 80 154 4.3 7.8 0.00 0.00 0.00 63 1013.6
20260906152538 80 131 4.3 7.8 0.00 0.00 0.00 63 1013.5
20260906152047 79 116 4.3 8.7 0.00 0.00 0.00 63 1013.4
20260906151559 79 131 4.3 9.6 0.00 0.00 0.00 64 1013.4
20260906151013 79 89 5.2 9.6 0.00 0.00 0.00 63 1013.4
20260906150521 79 98 5.2 10.4 0.00 0.00 0.00 64 1013.5
20260906150041 79 126 6.1 11.3 0.00 0.00 0.00 64 1013.5
20260906145547 79 98 7.0 11.3 0.00 0.00 0.00 64 1013.5
20260906145057 79 128 6.1 11.3 0.00 0.00 0.00 64 1013.4
20260906144534 79 121 8.7 14.8 0.00 0.00 0.00 64 1013.4
20260906144043 79 134 7.0 11.3 0.00 0.00 0.00 65 1013.3
20260906143557 78 131 7.8 13.9 0.00 0.00 0.00 66 1013.4
20260906143013 78 109 8.7 13.9 0.00 0.00 0.00 66 1013.2
20260906142521 78 113 9.6 13.9 0.00 0.00 0.00 66 1013.2
20260906142030 78 113 8.7 13.9 0.00 0.00 0.00 67 1013.3
20260906141514 78 133 7.8 13.9 0.00 0.00 0.00 67 1013.4
20260906141022 78 125 8.7 13.0 0.00 0.00 0.00 68 1013.5
20260906140531 78 124 7.8 13.0 0.00 0.00 0.00 68 1013.5
20260906140043 78 123 7.8 13.9 0.00 0.00 0.00 69 1013.5
20260906135558 77 117 9.6 13.9 0.00 0.00 0.00 69 1013.6
20260906135003 77 86 8.7 12.2 0.00 0.00 0.00 69 1013.6
20260906134554 77 109 7.8 12.2 0.00 0.00 0.00 70 1013.7
20260906134057 77 124 7.8 12.2 0.00 0.00 0.00 70 1013.7
20260906133509 77 110 8.7 12.2 0.00 0.00 0.00 70 1013.7
20260906133026 77 131 7.8 12.2 0.00 0.00 0.00 70 1013.7
20260906132526 77 129 6.1 12.2 0.00 0.00 0.00 71 1013.6
20260906132035 77 103 7.8 12.2 0.00 0.00 0.00 72 1013.5
20260906131517 77 141 7.0 11.3 0.00 0.00 0.00 72 1013.6
20260906131023 76 139 7.8 11.3 0.00 0.00 0.00 73 1013.6
20260906130535 76 110 6.1 12.2 0.00 0.00 0.00 73 1013.5
20260906130052 76 124 7.0 12.2 0.00 0.00 0.00 73 1013.5
20260906125501 76 116 7.0 11.3 0.00 0.00 0.00 73 1013.5
20260906125009 76 98 7.8 10.4 0.00 0.00 0.00 73 1013.4
20260906124519 76 117 7.0 10.4 0.00 0.00 0.00 73 1013.4
20260906124028 76 119 5.2 10.4 0.00 0.00 0.00 73 1013.3
20260906123540 76 108 5.2 11.3 0.00 0.00 0.00 73 1013.3
20260906123010 76 104 7.0 11.3 0.00 0.00 0.00 73 1013.2
20260906122519 75 103 5.2 8.7 0.00 0.00 0.00 74 1013.2
20260906122026 75 97 6.1 8.7 0.00 0.00 0.00 74 1013.2
20260906121539 75 131 5.2 8.7 0.00 0.00 0.00 74 1013.1
20260906121048 75 115 5.2 7.8 0.00 0.00 0.00 73 1013.1
20260906120554 75 116 5.2 7.8 0.00 0.00 0.00 73 1013.1
20260906120036 75 110 4.3 8.7 0.00 0.00 0.00 73 1013.0
20260906115543 75 112 6.1 8.7 0.00 0.00 0.00 73 1012.9
20260906115055 75 105 5.2 7.0 0.00 0.00 0.00 73 1012.8
20260906114510 75 101 5.2 7.8 0.00 0.00 0.00 73 1012.9
20260906114013 75 93 5.2 7.8 0.00 0.00 0.00 73 1012.8
20260906113524 75 113 4.3 7.0 0.00 0.00 0.00 73 1012.7
20260906113059 75 97 3.5 7.0 0.00 0.00 0.00 73 1012.8
20260906113009 75 107 3.5 7.0 0.00 0.00 0.00 73 1012.8
20260906112513 75 94 2.6 5.2 0.00 0.00 0.00 73 1012.8
20260906112032 75 102 2.6 6.1 0.00 0.00 0.00 73 1012.7
20260906111540 75 101 3.5 6.1 0.00 0.00 0.00 73 1012.7
20260906111045 75 110 4.3 6.1 0.00 0.00 0.00 73 1012.6
20260906110552 75 94 3.5 6.1 0.00 0.00 0.00 73 1012.5
20260906110034 75 94 3.5 7.0 0.00 0.00 0.00 73 1012.5
20260906105537 75 103 3.5 7.0 0.00 0.00 0.00 73 1012.5
20260906105046 75 105 4.3 6.1 0.00 0.00 0.00 73 1012.5
20260906104506 75 109 2.6 4.3 0.00 0.00 0.00 73 1012.4
20260906104009 75 127 1.7 3.5 0.00 0.00 0.00 73 1012.4
20260906103518 75 105 0.9 6.1 0.00 0.00 0.00 73 1012.5
20260906103051 75 121 2.6 6.1 0.00 0.00 0.00 73 1012.4
20260906102559 75 110 3.5 5.2 0.00 0.00 0.00 73 1012.4
20260906102005 75 124 3.5 7.0 0.00 0.00 0.00 73 1012.4
20260906101531 75 110 3.5 7.0 0.00 0.00 0.00 73 1012.3
20260906101030 75 117 3.5 7.0 0.00 0.00 0.00 73 1012.3
20260906100545 75 103 2.6 6.1 0.00 0.00 0.00 73 1012.2
20260906100049 75 103 2.6 5.2 0.00 0.00 0.00 73 1012.1
20260906095559 75 121 2.6 5.2 0.00 0.00 0.00 73 1012.1
20260906095006 75 103 2.6 4.3 0.00 0.00 0.00 73 1012.1
20260906094519 75 103 2.6 4.3 0.00 0.00 0.00 73 1012.1
20260906094025 75 102 2.6 4.3 0.00 0.00 0.00 73 1012.2
20260906093535 75 110 2.6 3.5 0.00 0.00 0.00 72 1012.2
20260906093017 75 92 0.9 3.5 0.00 0.00 0.00 72 1012.3
20260906092523 75 94 0.9 2.6 0.00 0.00 0.00 71 1012.3
20260906092035 75 89 0.0 0.9 0.00 0.00 0.00 69 1012.3
20260906091546 76 96 0.0 0.9 0.00 0.00 0.00 69 1012.3
20260906091057 76 98 0.0 1.7 0.00 0.00 0.00 68 1012.4
20260906090505 76 103 0.0 1.7 0.00 0.00 0.00 68 1012.3
20260906090027 76 110 0.0 2.6 0.00 0.00 0.00 68 1012.4
20260906085524 76 103 0.0 5.2 0.00 0.00 0.00 68 1012.4
20260906085039 76 104 2.6 5.2 0.00 0.00 0.00 68 1012.4
20260906084547 76 102 1.7 4.3 0.00 0.00 0.00 68 1012.3
20260906084053 76 111 2.6 6.1 0.00 0.00 0.00 68 1012.3
20260906083505 76 134 3.5 7.0 0.00 0.00 0.00 67 1012.2
20260906083018 76 113 3.5 7.0 0.00 0.00 0.00 67 1012.1
20260906082527 77 126 3.5 7.8 0.00 0.00 0.00 67 1012.1
20260906082037 77 127 4.3 7.8 0.00 0.00 0.00 67 1012.0
20260906081544 77 116 5.2 10.4 0.00 0.00 0.00 67 1012.0
20260906081056 77 123 5.2 10.4 0.00 0.00 0.00 67 1012.0
20260906080502 77 108 5.2 8.7 0.00 0.00 0.00 67 1012.0
20260906080042 77 138 5.2 8.7 0.00 0.00 0.00 67 1012.0
20260906075545 77 133 5.2 8.7 0.00 0.00 0.00 67 1012.0
20260906075055 77 141 4.3 8.7 0.00 0.00 0.00 66 1011.9
20260906074509 77 115 4.3 8.7 0.00 0.00 0.00 66 1011.9
20260906074023 77 124 6.1 8.7 0.00 0.00 0.00 66 1011.9
20260906073529 77 121 5.2 8.7 0.00 0.00 0.00 66 1011.9
20260906073043 77 119 5.2 9.6 0.00 0.00 0.00 66 1011.8
20260906072553 77 117 6.1 9.6 0.00 0.00 0.00 66 1011.8
20260906072003 77 116 5.2 8.7 0.00 0.00 0.00 66 1012.0
20260906071514 77 104 5.2 8.7 0.00 0.00 0.00 66 1012.1
20260906071024 77 109 5.2 10.4 0.00 0.00 0.00 65 1012.1
20260906070533 77 115 7.0 10.4 0.00 0.00 0.00 66 1012.0
20260906070007 78 131 6.1 10.4 0.00 0.00 0.00 65 1012.1
20260906065517 78 113 6.1 9.6 0.00 0.00 0.00 65 1012.1
20260906065024 78 122 5.2 8.7 0.00 0.00 0.00 65 1012.1
20260906064543 78 112 5.2 8.7 0.00 0.00 0.00 65 1012.2
20260906064051 78 117 5.2 9.6 0.00 0.00 0.00 65 1012.2
20260906063502 78 134 6.1 9.6 0.00 0.00 0.00 65 1012.2
20260906063015 78 128 5.2 8.7 0.00 0.00 0.00 65 1012.3
20260906062522 78 124 5.2 10.4 0.00 0.00 0.00 65 1012.2
20260906062033 78 126 7.0 10.4 0.00 0.00 0.00 65 1012.1
20260906061541 78 127 5.2 9.6 0.00 0.00 0.00 65 1012.1
20260906061052 78 124 7.0 10.4 0.00 0.00 0.00 65 1012.1
20260906060557 78 105 6.1 12.2 0.00 0.00 0.00 64 1012.1
20260906060037 79 115 7.8 12.2 0.00 0.00 0.00 64 1012.1
20260906055544 79 124 7.0 10.4 0.00 0.00 0.00 64 1012.1
20260906055053 79 121 7.0 10.4 0.00 0.00 0.00 64 1012.2
20260906054511 79 129 6.1 10.4 0.00 0.00 0.00 64 1012.2
20260906054019 79 117 7.8 11.3 0.00 0.00 0.00 64 1012.2
20260906053522 79 122 7.0 11.3 0.00 0.00 0.00 64 1012.1
20260906053043 79 108 7.0 9.6 0.00 0.00 0.00 64 1012.3
20260906052544 79 120 5.2 8.7 0.00 0.00 0.00 64 1012.3
20260906052040 79 98 5.2 8.7 0.00 0.00 0.00 64 1012.2
20260906051548 79 109 5.2 9.6 0.00 0.00 0.00 64 1012.2
20260906051057 79 129 6.1 9.6 0.00 0.00 0.00 64 1012.1
20260906050502 79 102 6.1 7.8 0.00 0.00 0.00 64 1012.2
20260906050122 79 103 6.1 7.8 0.00 0.00 0.00 64 1012.1
20260906045508 79 120 6.1 7.8 0.00 0.00 0.00 64 1012.2
20260906045018 79 108 5.2 7.8 0.00 0.00 0.00 64 1012.2
20260906044526 79 109 5.2 7.8 0.00 0.00 0.00 64 1012.3
20260906044033 79 86 4.3 7.8 0.00 0.00 0.00 64 1012.3
20260906043544 79 117 5.2 10.4 0.00 0.00 0.00 63 1012.4
20260906043050 79 98 5.2 10.4 0.00 0.00 0.00 63 1012.5
20260906042558 79 120 4.3 7.8 0.00 0.00 0.00 64 1012.5
20260906042004 79 90 4.3 7.0 0.00 0.00 0.00 64 1012.5
20260906041542 79 67 3.5 7.0 0.00 0.00 0.00 64 1012.5
20260906041054 79 96 2.6 5.2 0.00 0.00 0.00 64 1012.6
20260906040559 79 90 2.6 4.3 0.00 0.00 0.00 63 1012.6
20260906040016 79 111 2.6 5.2 0.00 0.00 0.00 63 1012.7
20260906035522 80 116 2.6 7.0 0.00 0.00 0.00 63 1012.6
20260906035030 80 110 2.6 7.0 0.00 0.00 0.00 63 1012.6
20260906034511 80 89 1.7 4.3 0.00 0.00 0.00 64 1012.6
20260906034018 80 111 1.7 4.3 0.00 0.00 0.00 64 1012.5
20260906033527 80 113 1.7 4.3 0.00 0.00 0.00 64 1012.4
20260906033051 80 96 1.7 5.2 0.00 0.00 0.00 63 1012.4
20260906032552 80 75 2.6 5.2 0.00 0.00 0.00 64 1012.3
20260906032100 80 82 2.6 5.2 0.00 0.00 0.00 64 1012.3
20260906032002 80 85 1.7 6.1 0.00 0.00 0.00 64 1012.3
20260906031514 80 101 2.6 6.1 0.00 0.00 0.00 64 1012.1
20260906031024 80 90 1.7 7.0 0.00 0.00 0.00 64 1012.1
20260906030528 80 112 2.6 7.8 0.00 0.00 0.00 64 1011.9
20260906030042 80 107 2.6 7.8 0.00 0.00 0.00 64 1011.8
20260906025558 81 80 2.6 7.0 0.00 0.00 0.00 64 1011.7
20260906025002 81 107 2.6 7.0 0.00 0.00 0.00 64 1011.7
20260906024523 81 95 3.5 7.0 0.00 0.00 0.00 63 1011.6
20260906024024 81 56 4.3 8.7 0.00 0.00 0.00 63 1011.5
20260906023540 81 104 5.2 8.7 0.00 0.00 0.00 63 1011.4
20260906023045 81 79 3.5 7.0 0.00 0.00 0.00 63 1011.4
20260906022556 81 103 4.3 9.6 0.00 0.00 0.00 63 1011.4
20260906022007 82 112 5.2 9.6 0.00 0.00 0.00 63 1011.3
20260906021526 82 85 4.3 8.7 0.00 0.00 0.00 63 1011.2
20260906021031 82 77 3.5 7.8 0.00 0.00 0.00 63 1011.2
20260906020546 82 83 4.3 7.8 0.00 0.00 0.00 63 1011.1
20260906020048 82 105 3.5 7.0 0.00 0.00 0.00 63 1011.1
20260906015550 82 98 2.6 7.8 0.00 0.00 0.00 63 1011.0
20260906015056 82 86 4.3 7.8 0.00 0.00 0.00 63 1010.9
20260906014517 82 89 3.5 5.2 0.00 0.00 0.00 63 1010.8
20260906014019 82 96 3.5 5.2 0.00 0.00 0.00 63 1010.7
20260906013528 82 94 3.5 5.2 0.00 0.00 0.00 63 1010.7
20260906013008 82 109 2.6 5.2 0.00 0.00 0.00 63 1010.6
20260906012518 82 72 2.6 5.2 0.00 0.00 0.00 63 1010.6
20260906012026 82 113 2.6 4.3 0.00 0.00 0.00 62 1010.5
20260906011540 82 96 1.7 5.2 0.00 0.00 0.00 62 1010.5
20260906011050 83 96 2.6 5.2 0.00 0.00 0.00 62 1010.5
20260906010558 83 103 1.7 4.3 0.00 0.00 0.00 62 1010.5
20260906010014 83 90 1.7 3.5 0.00 0.00 0.00 61 1010.4
20260906005527 84 92 1.7 4.3 0.00 0.00 0.00 61 1010.4
20260906005036 84 73 1.7 3.5 0.00 0.00 0.00 60 1010.4
20260906004542 84 85 1.7 5.2 0.00 0.00 0.00 60 1010.3
20260906004054 85 94 1.7 5.2 0.00 0.00 0.00 59 1010.3
20260906003601 85 103 1.7 4.3 0.00 0.00 0.00 58 1010.3
20260906003501 85 94 2.6 4.3 0.00 0.00 0.00 58 1010.3
20260906003012 86 127 2.6 4.3 0.00 0.00 0.00 58 1010.2
20260906002522 86 98 1.7 4.3 0.00 0.00 0.00 58 1010.3
20260906002028 86 84 1.7 4.3 0.00 0.00 0.00 58 1010.2
20260906001539 87 109 1.7 4.3 0.00 0.00 0.00 57 1010.1
20260906001046 87 116 2.6 6.1 0.00 0.00 0.00 57 1010.2
20260906000559 87 108 2.6 6.1 0.00 0.00 0.00 57 1010.1
20260906000013 87 94 3.5 6.1 0.00 0.00 0.00 56 1010.1
20260905235523 87 110 2.6 5.2 0.00 0.00 0.00 56 1010.1
20260905235032 88 111 3.5 7.0 0.00 0.00 0.00 55 1010.2
20260905234533 88 98 3.5 8.7 0.00 0.00 0.00 55 1010.2
20260905234043 89 93 3.5 8.7 0.00 0.00 0.00 54 1010.2
20260905233552 89 115 3.5 7.0 0.00 0.00 0.00 54 1010.2
20260905233012 89 92 4.3 6.1 0.00 0.00 0.00 54 1010.2
20260905232517 89 103 3.5 7.8 0.00 0.00 0.00 54 1010.2
20260905232022 89 110 5.2 7.8 0.00 0.00 0.00 53 1010.1
20260905231538 90 94 3.5 10.4 0.00 0.00 0.00 52 1010.1
20260905231039 90 108 5.2 10.4 0.00 0.00 0.00 52 1010.0
20260905230552 90 124 6.1 9.6 0.00 0.00 0.00 51 1010.0
20260905230008 90 124 4.3 10.4 0.00 0.00 0.00 51 1010.0
20260905225514 90 108 5.2 10.4 0.00 0.00 0.00 51 1010.0
20260905225022 90 83 5.2 7.8 0.00 0.00 0.00 51 1010.0
20260905224538 90 107 6.1 7.8 0.00 0.00 0.00 51 1009.9
20260905224043 90 140 5.2 7.8 0.00 0.00 0.00 51 1009.9
20260905223555 90 97 5.2 9.6 0.00 0.00 0.00 52 1009.8
20260905223005 90 95 6.1 9.6 0.00 0.00 0.00 51 1009.8
20260905222514 90 104 3.5 9.6 0.00 0.00 0.00 52 1009.7
20260905222026 89 101 6.1 9.6 0.00 0.00 0.00 51 1009.7
20260905221542 89 99 6.1 11.3 0.00 0.00 0.00 52 1009.7
20260905221050 89 107 7.0 11.3 0.00 0.00 0.00 52 1009.7
20260905220555 89 92 7.0 10.4 0.00 0.00 0.00 51 1009.6
20260905220010 90 98 6.1 11.3 0.00 0.00 0.00 51 1009.6
20260905215520 89 94 7.8 13.0 0.00 0.00 0.00 51 1009.6
20260905215025 89 129 7.8 13.0 0.00 0.00 0.00 51 1009.7
20260905214540 89 125 7.8 11.3 0.00 0.00 0.00 51 1009.7
20260905214044 89 122 7.8 12.2 0.00 0.00 0.00 52 1009.7
20260905213553 89 167 7.0 12.2 0.00 0.00 0.00 53 1009.7
20260905213009 89 117 6.1 11.3 0.00 0.00 0.00 52 1009.8
20260905212523 89 156 7.8 12.2 0.00 0.00 0.00 52 1009.7
20260905212024 88 124 7.0 13.9 0.00 0.00 0.00 52 1009.7
20260905211536 88 117 9.6 13.9 0.00 0.00 0.00 52 1009.9
20260905211038 88 121 8.7 13.9 0.00 0.00 0.00 53 1009.9
20260905210552 88 141 8.7 16.5 0.00 0.00 0.00 52 1010.0
20260905210010 88 136 11.3 16.5 0.00 0.00 0.00 51 1010.2
20260905205524 88 122 9.6 14.8 0.00 0.00 0.00 52 1010.3
20260905205026 87 89 9.6 13.9 0.00 0.00 0.00 52 1010.4
20260905204535 87 113 9.6 13.9 0.00 0.00 0.00 50 1010.4
20260905204042 87 84 8.7 13.9 0.00 0.00 0.00 51 1010.5
20260905203557 87 107 7.8 13.0 0.00 0.00 0.00 50 1010.7
20260905203016 87 116 9.6 14.8 0.00 0.00 0.00 51 1010.7
20260905202517 86 129 9.6 13.0 0.00 0.00 0.00 51 1010.8
20260905202030 85 127 8.7 14.8 0.00 0.00 0.00 51 1011.0
20260905201542 86 84 9.6 14.8 0.00 0.00 0.00 51 1011.1
20260905201046 86 121 10.4 13.9 0.00 0.00 0.00 49 1011.2
20260905200555 86 115 6.1 12.2 0.00 0.00 0.00 53 1011.4
20260905200002 86 103 6.1 12.2 0.00 0.00 0.00 51 1011.7
20260905195514 86 84 6.1 13.9 0.00 0.00 0.00 52 1012.0
20260905195026 86 92 6.1 13.0 0.00 0.00 0.00 50 1012.1
20260905194537 86 134 6.1 12.2 0.00 0.00 0.00 50 1012.2
20260905194043 86 78 6.1 11.3 0.00 0.00 0.00 50 1012.2
20260905193557 86 69 6.1 11.3 0.00 0.00 0.00 49 1012.3
20260905193005 86 117 4.3 9.6 0.00 0.00 0.00 48 1012.4
20260905192514 86 92 6.1 11.3 0.00 0.00 0.00 50 1012.6
20260905192024 86 63 7.0 12.2 0.00 0.00 0.00 48 1012.5
20260905191533 86 110 7.0 12.2 0.00 0.00 0.00 48 1012.5
20260905191039 86 101 7.0 10.4 0.00 0.00 0.00 50 1012.6
20260905190548 85 77 2.6 8.7 0.00 0.00 0.00 49 1012.6
20260905190004 85 82 5.2 13.0 0.00 0.00 0.00 46 1012.6
20260905185513 85 77 6.1 11.3 0.00 0.00 0.00 47 1012.9
20260905185026 85 54 3.5 9.6 0.00 0.00 0.00 49 1013.1
20260905184532 85 53 4.3 13.0 0.00 0.00 0.00 48 1013.2
20260905184039 85 53 7.0 13.0 0.00 0.00 0.00 46 1013.1
20260905183547 85 90 4.3 9.6 0.00 0.00 0.00 50 1013.3
20260905183102 85 96 4.3 13.0 0.00 0.00 0.00 48 1013.4
20260905183003 85 72 4.3 13.0 0.00 0.00 0.00 48 1013.4
20260905182513 84 82 4.3 13.0 0.00 0.00 0.00 48 1013.5
20260905182020 84 346 6.1 11.3 0.00 0.00 0.00 48 1013.6
20260905181529 84 56 4.3 15.6 0.00 0.00 0.00 51 1013.6